[[{"header":{"parameterUnit":"m.s-1","parameterCategory":1,"la1":30.2991,"la2":30.254,"lo1":-89.0895,"lo2":-89.0444,"dy":0.0017,"dx":0.0017,"nx":28,"ny":28,"refTime":"2024-10-04T09:00:00:Z","depth":0,"parameterNumber":2,"parameterNumberName":"U-component_of_WINDS"},"data":[0,0,0,0,0,0,0,0,0,0,0,0,0,0,0,0,0,0,0,0,0,0,0,0,0,0,0,0,0,0,0,0,0,0,0,0,0,0,0,0,0,0,0,0,0,0,0,0,0,0,0,0,0,0,0,0,0,0,-5.2425,-5.2425,0,-5.2435,-5.2435,-5.2435,-5.2299,-5.2296,-5.2292,-5.2288,-5.2298,-5.2302,-5.2306,0,0,0,0,0,0,0,0,0,0,0,0,0,-5.2287,-5.229,-5.2425,-5.2425,-5.2425,-5.2435,-5.2435,-5.2435,-5.23,-5.2295,-5.2291,-5.2287,-5.2297,-5.2302,-5.2306,0,0,0,0,0,0,0,0,0,0,0,0,0,-5.2327,-5.2291,-5.2425,-5.2359,-5.2353,-5.2435,-5.2435,-5.2435,-5.2301,-5.2295,-5.229,-5.2285,-5.2296,-5.2301,-5.2307,-5.2452,0,0,-5.2324,-5.2326,0,0,0,0,0,0,0,0,-5.2325,-5.2332,-5.2368,-5.2363,-5.2357,-5.236,-5.239,-5.2441,-5.2302,-5.2321,-5.2288,-5.2282,-5.2323,-5.2326,-5.234,-5.2453,-5.2453,-5.2324,-5.2328,-5.233,-5.2332,0,0,0,0,0,0,0,-5.2322,-5.2331,-5.2429,-5.2369,-5.2362,-5.2328,-5.2328,-5.2399,-5.2353,-5.2319,-5.2309,-5.2312,-5.2319,-5.2335,-5.234,-5.2453,-5.2324,-5.2329,-5.2333,-5.2335,-5.2685,-5.2691,0,0,0,0,0,0,-5.2329,-5.233,-5.2428,-5.2429,-5.2327,-5.2335,-5.2335,-5.2365,-5.2352,-5.2345,-5.2317,-5.2305,-5.2329,-5.2333,-5.234,-5.2509,-5.233,-5.2335,-5.2338,-5.2679,-5.2686,-5.2693,0,0,0,0,0,0,-5.2326,-5.2339,-5.2428,-5.2377,-5.2385,-5.2343,-5.2378,-5.2368,-5.2384,-5.235,-5.2341,-5.2342,-5.2324,-5.2332,-5.2425,-5.2507,-5.2338,-5.2343,-5.2672,-5.2681,-5.269,-5.285,0,0,0,0,0,0,-5.2323,-5.2339,-5.2394,-5.2379,-5.2389,-5.2514,-5.2383,-5.2372,-5.2394,-5.2379,-5.2372,-5.2365,-5.2321,-5.2418,-5.2431,-5.2512,-5.2347,-5.2665,-5.2676,-5.2687,-5.2837,-5.2863,-5.2885,0,0,0,0,0,-5.2318,-5.2438,-5.2397,-5.241,-5.2457,-5.2519,-5.2525,-5.2472,-5.2401,-5.2456,-5.2434,-5.2365,-5.2496,-5.2428,-5.2442,-5.2526,-5.2659,-5.2673,-5.2686,-5.2826,-5.2858,-5.2885,0,0,0,0,0,0,-5.2464,-5.2435,-5.2389,-5.2508,-5.2517,-5.2496,-5.2564,-5.2507,-5.2536,-5.2521,-5.2454,-5.2453,-5.2558,-5.2551,-5.2476,-5.2666,-5.2565,-5.2582,-5.2667,-5.2697,-5.2721,-5.272,-5.2352,0,0,0,0,0,-5.251,-5.2564,-5.2535,-5.2643,-5.265,-5.2607,-5.2632,-5.259,-5.2596,-5.2599,-5.2584,-5.2593,-5.2636,-5.2666,-5.2704,-5.2835,-5.2831,-5.2899,-5.2924,-5.2944,-5.2959,-5.3028,-5.3058,-5.2737,-5.2737,-5.2736,0,0,-5.2606,-5.2597,-5.2634,-5.2672,-5.2674,-5.273,-5.2611,-5.2675,-5.2716,-5.2609,-5.2696,-5.2686,-5.2691,-5.2804,-5.2853,-5.2802,-5.3047,-5.2961,-5.2977,-5.2981,-5.3045,-5.3075,-5.3102,-5.2746,-5.2744,-5.2743,0,0,-5.2809,-5.2807,-5.2897,-5.2901,-5.2906,-5.2876,-5.2898,-5.2885,-5.2874,-5.2961,-5.2882,-5.2929,-5.3005,-5.3012,-5.3025,-5.3231,-5.3168,-5.3245,-5.3372,-5.3439,-5.3465,-5.3487,-5.356,-5.3587,-5.326,-5.3261,-5.3261,0,-5.2927,-5.3009,-5.295,-5.302,-5.3039,-5.2944,-5.3034,-5.3041,-5.3058,-5.3073,-5.3015,-5.3108,-5.3105,-5.3218,-5.3268,-5.3282,-5.3305,-5.3246,-5.3466,-5.3487,-5.3507,-5.3576,-5.3604,-5.327,-5.3269,-5.3268,-5.3267,0,-5.3154,-5.3213,-5.3284,-5.3303,-5.3329,-5.341,-5.3362,-5.3396,-5.3352,-5.3329,-5.3418,-5.3411,-5.3445,-5.3469,-5.3426,-5.3576,-5.3544,-5.3478,-5.3375,-5.3548,-5.3612,-5.3638,-5.3283,-5.328,-5.3277,-5.3275,0,0,-5.345,-5.3435,-5.3462,-5.3469,-5.3467,-5.3511,-5.3586,-5.362,-5.3651,-5.3665,-5.3727,-5.3793,-5.3731,-5.3746,-5.3703,-5.3763,-5.3926,-5.3688,-5.3687,-5.3733,-5.4091,-5.4142,-5.4173,-5.3884,-5.3889,-5.3893,-5.409,0,-5.3647,-5.3775,-5.3724,-5.3857,-5.3909,-5.382,-5.3885,-5.3891,-5.3871,-5.3913,-5.389,-5.3938,-5.3853,-5.3861,-5.3916,-5.3895,-5.3997,-5.388,-5.3941,-5.3944,-5.3943,-5.4206,-5.426,-5.4447,-5.4115,-5.4119,-5.4122,0,-5.3895,-5.392,-5.4058,-5.4046,-5.4067,-5.4127,-5.4153,-5.4194,-5.4199,-5.418,-5.4198,-5.4142,-5.4214,-5.4112,-5.4211,-5.4132,-5.4154,-5.4147,-5.4153,-5.4157,-5.4044,-5.4218,-5.4505,-5.4533,-5.4161,-5.4158,-5.4155,0,-5.4097,-5.4165,-5.4256,-5.4265,-5.4254,-5.4298,-5.4296,-5.4294,-5.4318,-5.4341,-5.4356,-5.4387,-5.4405,-5.4431,-5.4385,-5.4314,-5.449,-5.4384,-5.4477,-5.4478,-5.4518,-5.4516,-5.4813,-5.4532,-5.4532,-5.4531,-5.4531,0,-5.4323,-5.4411,-5.4347,-5.4403,-5.4499,-5.4439,-5.4535,-5.4522,-5.4522,-5.4574,-5.4498,-5.4549,-5.4485,-5.4529,-5.4493,-5.4581,-5.4589,-5.4576,-5.4566,-5.4583,-5.4585,-5.4596,-5.4582,-5.4539,-5.4537,-5.4536,-5.4534,0,-5.4565,-5.4526,-5.4619,-5.4601,-5.4598,-5.467,-5.4653,-5.4705,-5.4679,-5.4746,-5.4758,-5.4718,-5.4766,-5.4722,-5.4768,-5.4744,-5.4861,-5.4832,-5.486,-5.4852,-5.4947,-5.4939,-5.5262,-5.5302,-5.4996,-5.4999,-5.5001,0,-5.4713,-5.4778,-5.4767,-5.4796,-5.4798,-5.4847,-5.487,-5.4813,-5.4841,-5.4851,-5.4901,-5.4942,-5.4972,-5.5053,-5.5028,-5.5063,-5.5034,-5.5145,-5.5039,-5.5054,-5.5036,-5.5033,-5.5039,-5.5167,-5.517,-5.5173,-5.5176,0,-5.4978,-5.4955,-5.4992,-5.5023,-5.5053,-5.5075,-5.509,-5.5118,-5.506,-5.5095,-5.5143,-5.5166,-5.5213,-5.5255,-5.5282,-5.5278,-5.5218,-5.5209,-5.5233,-5.5251,-5.5265,-5.5259,-5.4919,-5.5202,-5.52,-5.5198,-5.5196,-5.5195,-5.5177,-5.5231,-5.5231,-5.5275,-5.528,-5.5297,-5.5344,-5.5324,-5.5363,-5.5397,-5.5361,-5.542,-5.5422,-5.5451,-5.5455,-5.55,-5.5454,-5.5487,-5.5496,-5.5505,-5.5519,-5.5258,-5.5505,-5.5504,-5.5503,-5.5502,-5.5502,0,-5.5438,-5.5434,-5.5475,-5.5499,-5.5533,-5.5473,-5.5487,-5.552,-5.5572,-5.558,-5.5611,-5.5666,-5.5707,-5.5685,-5.572,-5.576,-5.5733,-5.5771,-5.5768,-5.5768,-5.5559,-5.5535,-5.5792,-5.5792,-5.5792,-5.5792,-5.5792,-5.5792,-5.5578,-5.5666,-5.5644,-5.5734,-5.5728,-5.5786,-5.5799,-5.5813,-5.5818,-5.5884,-5.5917,-5.5902,-5.5898,-5.5932,-5.5966,-5.5959,-5.5975,-5.6024,-5.6006,-5.5811,-5.5783,-5.5755,-5.5733,-5.6028,-5.6028,-5.6212,-5.6213,-5.6215]},{"header":{"parameterUnit":"m.s-1","parameterCategory":1,"la1":30.2991,"la2":30.254,"lo1":-89.0895,"lo2":-89.0444,"dy":0.0017,"dx":0.0017,"nx":28,"ny":28,"refTime":"2024-10-04T09:00:00:Z","depth":0,"parameterNumber":3,"parameterNumberName":"V-component_of_WINDS"},"data":[0,0,0,0,0,0,0,0,0,0,0,0,0,0,0,0,0,0,0,0,0,0,0,0,0,0,0,0,0,0,0,0,0,0,0,0,0,0,0,0,0,0,0,0,0,0,0,0,0,0,0,0,0,0,0,0,0,0,-2.5719,-2.5719,0,-2.5742,-2.5742,-2.5742,-2.5706,-2.5705,-2.5704,-2.5703,-2.5727,-2.5728,-2.573,0,0,0,0,0,0,0,0,0,0,0,0,0,-2.5643,-2.5645,-2.5719,-2.5719,-2.572,-2.5742,-2.5742,-2.5742,-2.5707,-2.5705,-2.5704,-2.5702,-2.5726,-2.5728,-2.573,0,0,0,0,0,0,0,0,0,0,0,0,0,-2.5672,-2.5645,-2.5719,-2.5704,-2.5703,-2.5742,-2.5742,-2.5743,-2.5707,-2.5705,-2.5703,-2.5701,-2.5725,-2.5728,-2.5731,-2.5785,0,0,-2.5739,-2.574,0,0,0,0,0,0,0,0,-2.567,-2.5675,-2.5706,-2.5705,-2.5704,-2.5719,-2.5724,-2.5757,-2.5707,-2.5706,-2.5703,-2.5701,-2.5726,-2.5728,-2.5737,-2.5786,-2.5787,-2.5739,-2.5741,-2.5742,-2.5743,0,0,0,0,0,0,0,-2.5668,-2.5674,-2.5728,-2.5707,-2.5706,-2.5696,-2.5698,-2.573,-2.5726,-2.5706,-2.5703,-2.5706,-2.5725,-2.5734,-2.5737,-2.5787,-2.5739,-2.5741,-2.5743,-2.5744,-2.5879,-2.5881,0,0,0,0,0,0,-2.5668,-2.5672,-2.5727,-2.5729,-2.5682,-2.5699,-2.5701,-2.5716,-2.5725,-2.5725,-2.5708,-2.5704,-2.5731,-2.5734,-2.5738,-2.58,-2.5742,-2.5744,-2.5746,-2.5877,-2.588,-2.5882,0,0,0,0,0,0,-2.5667,-2.5674,-2.5726,-2.57,-2.5706,-2.5702,-2.572,-2.5718,-2.5727,-2.5727,-2.5726,-2.5718,-2.5729,-2.5734,-2.5773,-2.58,-2.5746,-2.5748,-2.5875,-2.5878,-2.5881,-2.5925,0,0,0,0,0,0,-2.5665,-2.5673,-2.5694,-2.5701,-2.5707,-2.5761,-2.5721,-2.572,-2.5732,-2.5728,-2.5737,-2.5736,-2.5728,-2.5769,-2.5775,-2.5803,-2.575,-2.5872,-2.5876,-2.588,-2.5922,-2.593,-2.5937,0,0,0,0,0,-2.5662,-2.5707,-2.5695,-2.5702,-2.5733,-2.5763,-2.5767,-2.5757,-2.5734,-2.5755,-2.5754,-2.5736,-2.5796,-2.5773,-2.578,-2.5809,-2.5871,-2.5875,-2.5879,-2.5918,-2.5928,-2.5936,0,0,0,0,0,0,-2.5704,-2.5707,-2.5695,-2.5743,-2.5753,-2.5757,-2.5783,-2.5768,-2.5785,-2.578,-2.5767,-2.5769,-2.581,-2.5814,-2.5788,-2.586,-2.583,-2.5836,-2.5857,-2.5866,-2.5873,-2.5871,-2.5752,0,0,0,0,0,-2.5719,-2.5743,-2.5744,-2.5786,-2.5792,-2.5786,-2.5799,-2.579,-2.58,-2.5804,-2.5807,-2.5817,-2.5838,-2.5852,-2.5872,-2.5922,-2.5922,-2.5945,-2.5953,-2.5959,-2.5964,-2.5988,-2.5998,-2.5896,-2.5896,-2.5896,0,0,-2.575,-2.5754,-2.5771,-2.5795,-2.5801,-2.5826,-2.579,-2.5818,-2.5836,-2.5809,-2.5845,-2.5847,-2.5857,-2.5901,-2.5921,-2.5906,-2.5992,-2.5964,-2.5969,-2.5971,-2.5994,-2.6004,-2.6012,-2.5899,-2.5899,-2.5898,0,0,-2.5818,-2.5825,-2.5859,-2.5866,-2.5877,-2.5873,-2.5881,-2.5887,-2.5887,-2.5923,-2.5902,-2.5923,-2.596,-2.5968,-2.5977,-2.6046,-2.6029,-2.6053,-2.6092,-2.6116,-2.6124,-2.6131,-2.6154,-2.6162,-2.6058,-2.6058,-2.6058,0,-2.5855,-2.5891,-2.5879,-2.5908,-2.5918,-2.5894,-2.5928,-2.5935,-2.5952,-2.5959,-2.5942,-2.5986,-2.5992,-2.6036,-2.6053,-2.6062,-2.607,-2.6051,-2.6124,-2.6131,-2.6137,-2.6159,-2.6168,-2.6061,-2.6061,-2.606,-2.606,0,-2.5935,-2.5961,-2.5987,-2.6003,-2.6016,-2.6048,-2.6039,-2.6055,-2.6044,-2.6041,-2.6077,-2.6083,-2.6102,-2.6112,-2.6103,-2.6155,-2.6145,-2.6126,-2.6094,-2.6149,-2.617,-2.6178,-2.6065,-2.6064,-2.6063,-2.6062,0,0,-2.6032,-2.6038,-2.6048,-2.6054,-2.6063,-2.6082,-2.6111,-2.6129,-2.6142,-2.6154,-2.6177,-2.6209,-2.619,-2.62,-2.6191,-2.6213,-2.6265,-2.6191,-2.6191,-2.6203,-2.632,-2.6334,-2.6344,-2.6254,-2.6255,-2.6257,-2.6319,0,-2.6098,-2.6149,-2.6138,-2.6188,-2.621,-2.6186,-2.6211,-2.6219,-2.6217,-2.6235,-2.6233,-2.6255,-2.623,-2.6235,-2.6256,-2.6254,-2.6288,-2.625,-2.6275,-2.6276,-2.6272,-2.6355,-2.6369,-2.6428,-2.6327,-2.6328,-2.6329,0,-2.6183,-2.6197,-2.6248,-2.6251,-2.626,-2.6283,-2.6298,-2.6316,-2.6324,-2.6321,-2.6331,-2.6317,-2.6346,-2.6314,-2.6353,-2.6327,-2.6336,-2.6337,-2.6339,-2.634,-2.6305,-2.6357,-2.6447,-2.6455,-2.6342,-2.6341,-2.634,0,-2.6246,-2.6277,-2.6312,-2.6317,-2.6323,-2.6339,-2.6342,-2.6348,-2.6359,-2.6372,-2.6378,-2.6395,-2.6403,-2.6416,-2.6407,-2.6385,-2.6446,-2.6414,-2.6443,-2.6443,-2.6457,-2.6456,-2.6548,-2.6465,-2.6465,-2.6465,-2.6464,0,-2.6321,-2.6353,-2.6339,-2.6361,-2.6395,-2.6382,-2.6416,-2.6417,-2.6422,-2.6442,-2.6423,-2.6442,-2.6429,-2.6447,-2.644,-2.6472,-2.6476,-2.6474,-2.6471,-2.6475,-2.6475,-2.648,-2.6475,-2.6467,-2.6466,-2.6466,-2.6466,0,-2.6397,-2.6389,-2.6425,-2.6426,-2.6427,-2.6452,-2.6453,-2.6472,-2.6468,-2.6494,-2.6499,-2.6493,-2.6513,-2.6505,-2.6526,-2.6521,-2.6562,-2.6555,-2.6559,-2.6556,-2.6585,-2.6582,-2.6683,-2.6695,-2.6606,-2.6607,-2.6607,0,-2.6444,-2.6468,-2.6471,-2.6483,-2.6487,-2.6506,-2.6517,-2.6504,-2.6516,-2.6525,-2.6543,-2.6561,-2.6575,-2.6608,-2.6605,-2.6621,-2.6613,-2.6648,-2.6616,-2.6618,-2.6612,-2.661,-2.6612,-2.6654,-2.6655,-2.6656,-2.6656,0,-2.6529,-2.6524,-2.654,-2.6554,-2.6566,-2.6577,-2.6586,-2.6597,-2.6585,-2.6599,-2.6618,-2.6629,-2.665,-2.6668,-2.6681,-2.6684,-2.6668,-2.6667,-2.6674,-2.6677,-2.6678,-2.6676,-2.6575,-2.6664,-2.6663,-2.6663,-2.6662,-2.6662,-2.6591,-2.6611,-2.6615,-2.6633,-2.6638,-2.6646,-2.6664,-2.6661,-2.6677,-2.6693,-2.6684,-2.6707,-2.6712,-2.6729,-2.6734,-2.6751,-2.6737,-2.6748,-2.6751,-2.6753,-2.6756,-2.6676,-2.6753,-2.6753,-2.6753,-2.6753,-2.6753,0,-2.6674,-2.6675,-2.6691,-2.6704,-2.6717,-2.6701,-2.6709,-2.6722,-2.6741,-2.6748,-2.6761,-2.6783,-2.6799,-2.6798,-2.6813,-2.6827,-2.682,-2.6831,-2.6829,-2.683,-2.6768,-2.676,-2.6836,-2.6836,-2.6836,-2.6836,-2.6836,-2.6836,-2.6718,-2.6749,-2.6744,-2.6777,-2.6778,-2.6799,-2.6805,-2.6812,-2.6817,-2.6842,-2.6855,-2.6854,-2.6856,-2.6871,-2.6885,-2.6884,-2.689,-2.6904,-2.69,-2.6843,-2.6834,-2.6826,-2.6818,-2.6906,-2.6906,-2.696,-2.6961,-2.6961]}]]